Location: Street
(51.1247°N, 2.7429°W)
Time: 02:44:50
(UTC+00:00)

deb Explorer IX - Pass Details

Date: 08 December 2020
Orbit: 536 x 1104 km, 38.8° (Epoch: 20 January)

Event Time Altitude Azimuth Distance (km) Brightness Sun altitude
Rises 16:28:21 0° 259° (W) 3,821 ? -4.0°
Reaches altitude 10° 16:31:47 10° 246° (WSW) 2,794 ? -4.4°
Maximum altitude 16:36:47 22° 198° (SSW) 1,915 ? -5.1°
Drops below altitude 10° 16:41:20 10° 149° (SSE) 2,506 ? -5.7°
Sets 16:44:13 0° 135° (SE) 3,335 ? -6.1°
